| time (UTC) | temp F | wind direction | speed MPH | gust MPH | rain 1hr in | rain 24hr in | rain mn in | humidity % | barometer mb |
| 20260904200403 | 75 | 269 | 0.0 | 0.0 | 0.00 | 0.09 | 0.08 | 76 | 1009.1 |
| 20260904195402 | 76 | 262 | 0.0 | 0.0 | 0.00 | 0.09 | 0.08 | 75 | 1009.1 |
| 20260904194403 | 75 | 259 | 0.0 | 0.0 | 0.00 | 0.09 | 0.08 | 76 | 1009.2 |
| 20260904193424 | 74 | 266 | 0.0 | 0.0 | 0.00 | 0.09 | 0.08 | 78 | 1009.2 |
| 20260904192403 | 73 | 261 | 0.0 | 0.0 | 0.00 | 0.09 | 0.08 | 80 | 1009.2 |
| 20260904191403 | 72 | 250 | 0.0 | 0.0 | 0.00 | 0.09 | 0.08 | 79 | 1009.2 |
| 20260904190403 | 73 | 257 | 0.0 | 0.0 | 0.00 | 0.09 | 0.08 | 80 | 1009.2 |
| 20260904185403 | 73 | 238 | 0.0 | 0.0 | 0.00 | 0.09 | 0.08 | 80 | 1009.4 |
| 20260904184403 | 73 | 251 | 0.0 | 0.0 | 0.00 | 0.09 | 0.08 | 78 | 1009.5 |
| 20260904183424 | 73 | 248 | 0.0 | 0.0 | 0.00 | 0.09 | 0.08 | 78 | 1009.5 |
| 20260904182403 | 73 | 264 | 0.0 | 0.0 | 0.00 | 0.09 | 0.08 | 78 | 1009.4 |
| 20260904181403 | 73 | 250 | 0.0 | 0.0 | 0.00 | 0.09 | 0.08 | 80 | 1009.4 |
| 20260904180403 | 72 | 272 | 0.0 | 0.0 | 0.00 | 0.09 | 0.08 | 82 | 1009.6 |
| 20260904175403 | 71 | 263 | 0.0 | 0.0 | 0.00 | 0.09 | 0.08 | 80 | 1009.6 |
| 20260904174423 | 72 | 194 | 0.0 | 0.0 | 0.00 | 0.09 | 0.08 | 79 | 1009.7 |
| 20260904173403 | 72 | 222 | 0.0 | 0.0 | 0.00 | 0.09 | 0.08 | 82 | 1009.5 |
| 20260904172403 | 72 | 216 | 0.0 | 0.0 | 0.00 | 0.09 | 0.08 | 81 | 1009.5 |
| 20260904171403 | 72 | 265 | 0.0 | 0.0 | 0.00 | 0.09 | 0.08 | 80 | 1009.5 |
| 20260904170403 | 71 | 267 | 0.0 | 0.0 | 0.00 | 0.09 | 0.08 | 81 | 1009.5 |
| 20260904165402 | 71 | 267 | 0.0 | 0.0 | 0.00 | 0.09 | 0.08 | 82 | 1009.6 |
| 20260904164403 | 71 | 267 | 0.0 | 0.0 | 0.00 | 0.09 | 0.08 | 78 | 1009.6 |
| 20260904163402 | 72 | 267 | 0.0 | 0.0 | 0.00 | 0.09 | 0.08 | 79 | 1009.8 |
| 20260904162424 | 73 | 248 | 0.0 | 0.0 | 0.00 | 0.09 | 0.08 | 80 | 1009.6 |
| 20260904161403 | 74 | 259 | 0.0 | 0.0 | 0.00 | 0.09 | 0.08 | 78 | 1009.7 |
| 20260904160403 | 73 | 269 | 0.0 | 0.0 | 0.00 | 0.09 | 0.08 | 77 | 1009.8 |
| 20260904155424 | 73 | 257 | 0.0 | 0.0 | 0.00 | 0.09 | 0.08 | 80 | 1009.9 |
| 20260904154402 | 73 | 240 | 0.0 | 0.0 | 0.00 | 0.09 | 0.08 | 80 | 1010.0 |
| 20260904153403 | 72 | 253 | 0.0 | 0.0 | 0.00 | 0.09 | 0.08 | 82 | 1010.1 |
| 20260904152402 | 72 | 296 | 0.0 | 0.0 | 0.00 | 0.09 | 0.08 | 81 | 1010.2 |
| 20260904151403 | 72 | 262 | 0.0 | 0.0 | 0.00 | 0.09 | 0.08 | 82 | 1010.2 |
| 20260904150402 | 71 | 288 | 0.0 | 0.0 | 0.00 | 0.09 | 0.08 | 83 | 1010.0 |
| 20260904145403 | 71 | 258 | 0.0 | 0.0 | 0.00 | 0.09 | 0.08 | 82 | 1010.0 |
| 20260904144402 | 70 | 228 | 0.0 | 0.0 | 0.00 | 0.09 | 0.08 | 86 | 1009.9 |
| 20260904143403 | 69 | 246 | 0.0 | 0.0 | 0.00 | 0.09 | 0.08 | 86 | 1009.9 |
| 20260904142402 | 69 | 264 | 0.0 | 0.0 | 0.00 | 0.09 | 0.08 | 87 | 1009.9 |
| 20260904141403 | 68 | 267 | 0.0 | 0.0 | 0.00 | 0.09 | 0.08 | 89 | 1010.0 |
| 20260904140402 | 67 | 265 | 0.0 | 0.0 | 0.00 | 0.09 | 0.08 | 90 | 1010.0 |
| 20260904135403 | 67 | 242 | 0.0 | 0.0 | 0.00 | 0.09 | 0.08 | 93 | 1010.0 |
| 20260904134402 | 66 | 243 | 0.0 | 6.0 | 0.00 | 0.09 | 0.08 | 94 | 1009.9 |
| 20260904133403 | 66 | 236 | 2.0 | 5.0 | 0.00 | 0.09 | 0.08 | 95 | 1009.9 |
| 20260904132402 | 65 | 254 | 2.0 | 7.0 | 0.00 | 0.09 | 0.08 | 96 | 1010.0 |
| 20260904131403 | 65 | 254 | 3.0 | 8.0 | 0.00 | 0.09 | 0.08 | 96 | 1010.0 |
| 20260904130402 | 65 | 288 | 1.0 | 7.0 | 0.00 | 0.09 | 0.08 | 96 | 1010.0 |
| 20260904125403 | 64 | 235 | 1.0 | 4.0 | 0.00 | 0.09 | 0.08 | 96 | 1010.0 |
| 20260904124424 | 64 | 234 | 0.0 | 3.0 | 0.00 | 0.09 | 0.08 | 96 | 1010.0 |
| 20260904123403 | 63 | 234 | 1.0 | 3.0 | 0.00 | 0.09 | 0.08 | 96 | 1010.0 |
| 20260904122403 | 63 | 234 | 1.0 | 3.0 | 0.00 | 0.09 | 0.08 | 96 | 1010.1 |
| 20260904120403 | 64 | 232 | 0.0 | 2.0 | 0.00 | 0.09 | 0.08 | 96 | 1010.1 |
| 20260904115403 | 63 | 233 | 0.0 | 0.0 | 0.00 | 0.09 | 0.08 | 97 | 1010.1 |
| 20260904114403 | 62 | 233 | 0.0 | 0.0 | 0.00 | 0.09 | 0.08 | 96 | 1010.0 |
| 20260904113403 | 61 | 233 | 0.0 | 0.0 | 0.00 | 0.09 | 0.08 | 96 | 1009.9 |
| 20260904112403 | 60 | 233 | 0.0 | 0.0 | 0.00 | 0.09 | 0.08 | 96 | 1009.7 |
| 20260904111403 | 60 | 233 | 0.0 | 0.0 | 0.00 | 0.09 | 0.08 | 95 | 1009.6 |
| 20260904110403 | 59 | 233 | 0.0 | 0.0 | 0.00 | 0.09 | 0.08 | 95 | 1009.5 |
| 20260904105424 | 59 | 233 | 0.0 | 0.0 | 0.00 | 0.09 | 0.08 | 95 | 1009.4 |
| 20260904104404 | 59 | 233 | 0.0 | 0.0 | 0.00 | 0.09 | 0.08 | 95 | 1009.4 |
| 20260904103424 | 60 | 233 | 0.0 | 0.0 | 0.00 | 0.09 | 0.08 | 95 | 1009.3 |
| 20260904102403 | 60 | 233 | 0.0 | 0.0 | 0.00 | 0.09 | 0.08 | 95 | 1009.3 |
| 20260904101403 | 60 | 233 | 0.0 | 0.0 | 0.00 | 0.09 | 0.08 | 95 | 1009.2 |
| 20260904100424 | 60 | 233 | 0.0 | 0.0 | 0.00 | 0.09 | 0.08 | 95 | 1009.0 |
| 20260904095403 | 60 | 232 | 0.0 | 1.0 | 0.00 | 0.09 | 0.08 | 95 | 1008.9 |
| 20260904094403 | 60 | 233 | 0.0 | 0.0 | 0.00 | 0.09 | 0.08 | 95 | 1008.9 |
| 20260904093403 | 60 | 233 | 0.0 | 0.0 | 0.00 | 0.09 | 0.08 | 95 | 1008.8 |
| 20260904092404 | 60 | 233 | 0.0 | 0.0 | 0.00 | 0.09 | 0.08 | 95 | 1008.9 |
| 20260904091403 | 60 | 233 | 0.0 | 0.0 | 0.00 | 0.09 | 0.08 | 95 | 1008.8 |
| 20260904085403 | 61 | 233 | 0.0 | 0.0 | 0.00 | 0.09 | 0.08 | 94 | 1008.7 |
| 20260904084403 | 61 | 233 | 0.0 | 0.0 | 0.00 | 0.09 | 0.08 | 95 | 1008.7 |
| 20260904083403 | 61 | 232 | 0.0 | 1.0 | 0.00 | 0.09 | 0.08 | 95 | 1008.8 |
| 20260904082403 | 61 | 233 | 0.0 | 0.0 | 0.00 | 0.09 | 0.08 | 95 | 1008.8 |
| 20260904081424 | 61 | 233 | 0.0 | 0.0 | 0.00 | 0.09 | 0.08 | 95 | 1008.8 |
| 20260904080403 | 61 | 233 | 0.0 | 0.0 | 0.00 | 0.09 | 0.08 | 95 | 1008.8 |
| 20260904075403 | 61 | 233 | 0.0 | 0.0 | 0.00 | 0.09 | 0.08 | 94 | 1008.7 |
| 20260904074403 | 61 | 233 | 0.0 | 0.0 | 0.00 | 0.10 | 0.08 | 94 | 1008.7 |
| 20260904073424 | 61 | 233 | 0.0 | 0.0 | 0.00 | 0.10 | 0.08 | 94 | 1008.7 |
| 20260904072403 | 61 | 233 | 0.0 | 0.0 | 0.00 | 0.10 | 0.08 | 94 | 1008.7 |
| 20260904071403 | 62 | 233 | 0.0 | 0.0 | 0.00 | 0.10 | 0.08 | 94 | 1008.7 |
| 20260904070403 | 62 | 233 | 0.0 | 0.0 | 0.00 | 0.10 | 0.08 | 94 | 1008.6 |
| 20260904065403 | 62 | 233 | 0.0 | 0.0 | 0.01 | 0.10 | 0.08 | 94 | 1008.6 |
| 20260904064403 | 62 | 233 | 0.0 | 0.0 | 0.00 | 0.09 | 0.07 | 94 | 1008.7 |
| 20260904063424 | 63 | 233 | 0.0 | 3.0 | 0.00 | 0.09 | 0.07 | 94 | 1008.7 |
| 20260904062403 | 63 | 233 | 0.0 | 2.0 | 0.00 | 0.09 | 0.07 | 94 | 1008.8 |
| 20260904061403 | 63 | 233 | 0.0 | 0.0 | 0.00 | 0.11 | 0.07 | 94 | 1008.8 |
| 20260904060402 | 63 | 233 | 0.0 | 0.0 | 0.00 | 0.12 | 0.07 | 94 | 1008.9 |
| 20260904055403 | 63 | 233 | 0.0 | 0.0 | 0.00 | 0.14 | 0.07 | 94 | 1009.1 |
| 20260904054423 | 64 | 233 | 0.0 | 0.0 | 0.00 | 0.15 | 0.07 | 94 | 1009.2 |
| 20260904053424 | 64 | 233 | 0.0 | 0.0 | 0.00 | 0.16 | 0.07 | 94 | 1009.1 |
| 20260904052402 | 64 | 233 | 0.0 | 0.0 | 0.00 | 0.17 | 0.07 | 94 | 1009.1 |
| 20260904051403 | 64 | 233 | 0.0 | 0.0 | 0.00 | 0.19 | 0.07 | 94 | 1009.2 |
| 20260904050403 | 64 | 233 | 0.0 | 0.0 | 0.00 | 0.24 | 0.07 | 94 | 1009.3 |
| 20260904045424 | 64 | 233 | 0.0 | 3.0 | 0.07 | 0.25 | 0.07 | 94 | 1009.3 |
| 20260904044403 | 64 | 233 | 0.0 | 1.0 | 0.07 | 0.30 | 0.07 | 94 | 1009.4 |
| 20260904043403 | 64 | 233 | 0.0 | 2.0 | 0.07 | 0.35 | 0.07 | 94 | 1009.5 |
| 20260904042403 | 63 | 234 | 0.0 | 1.0 | 0.05 | 0.40 | 0.05 | 93 | 1009.6 |
| 20260904041424 | 63 | 234 | 0.0 | 0.0 | 0.00 | 0.42 | 0.00 | 93 | 1009.7 |
| 20260904040424 | 63 | 234 | 0.0 | 0.0 | 0.00 | 0.48 | 0.00 | 93 | 1009.7 |
| 20260904035403 | 63 | 234 | 0.0 | 0.0 | 0.00 | 0.51 | 0.48 | 93 | 1009.7 |
| 20260904034402 | 63 | 234 | 0.0 | 0.0 | 0.00 | 0.55 | 0.48 | 93 | 1009.6 |
| 20260904033424 | 63 | 234 | 0.0 | 0.0 | 0.00 | 0.60 | 0.48 | 93 | 1009.5 |
| 20260904032403 | 64 | 233 | 0.0 | 0.0 | 0.00 | 0.62 | 0.48 | 92 | 1009.5 |
| 20260904031402 | 64 | 234 | 0.0 | 0.0 | 0.00 | 0.64 | 0.48 | 93 | 1009.5 |
| 20260904030403 | 64 | 234 | 0.0 | 0.0 | 0.00 | 0.65 | 0.48 | 92 | 1009.5 |
| 20260904025403 | 64 | 234 | 0.0 | 0.0 | 0.00 | 0.66 | 0.48 | 92 | 1009.5 |
| 20260904024403 | 64 | 234 | 0.0 | 0.0 | 0.00 | 0.70 | 0.48 | 92 | 1009.7 |
| 20260904022402 | 64 | 234 | 0.0 | 0.0 | 0.00 | 0.72 | 0.48 | 91 | 1009.8 |
| 20260904021404 | 64 | 234 | 0.0 | 0.0 | 0.00 | 0.73 | 0.48 | 91 | 1009.9 |
| 20260904020425 | 64 | 234 | 0.0 | 0.0 | 0.00 | 0.76 | 0.48 | 91 | 1009.8 |
| 20260904014404 | 65 | 235 | 0.0 | 0.0 | 0.00 | 0.79 | 0.48 | 90 | 1009.9 |
| 20260904013404 | 65 | 234 | 0.0 | 0.0 | 0.00 | 0.79 | 0.48 | 90 | 1009.9 |
| 20260904012425 | 65 | 234 | 0.0 | 2.0 | 0.00 | 0.79 | 0.48 | 90 | 1009.9 |
| 20260904011404 | 65 | 234 | 0.0 | 0.0 | 0.00 | 0.79 | 0.48 | 90 | 1009.9 |
| 20260904010404 | 65 | 234 | 0.0 | 1.0 | 0.00 | 0.79 | 0.48 | 90 | 1009.9 |
| 20260904005425 | 65 | 234 | 0.0 | 0.0 | 0.00 | 0.79 | 0.48 | 90 | 1009.9 |
| 20260904004404 | 65 | 234 | 0.0 | 1.0 | 0.00 | 0.79 | 0.48 | 89 | 1009.5 |
| 20260904003403 | 66 | 234 | 0.0 | 0.0 | 0.00 | 0.79 | 0.48 | 89 | 1009.5 |
| 20260904002404 | 67 | 234 | 0.0 | 0.0 | 0.00 | 0.79 | 0.48 | 88 | 1009.2 |
| 20260904001424 | 68 | 234 | 0.0 | 0.0 | 0.00 | 0.79 | 0.48 | 88 | 1009.1 |
| 20260904000425 | 68 | 234 | 0.0 | 0.0 | 0.00 | 0.79 | 0.48 | 88 | 1009.1 |
| 20260903235425 | 69 | 234 | 0.0 | 0.0 | 0.00 | 0.79 | 0.48 | 88 | 1009.0 |
| 20260903234403 | 69 | 234 | 0.0 | 0.0 | 0.00 | 0.79 | 0.48 | 88 | 1008.8 |
| 20260903233404 | 70 | 234 | 0.0 | 0.0 | 0.00 | 0.79 | 0.48 | 88 | 1008.7 |
| 20260903232404 | 70 | 234 | 0.0 | 0.0 | 0.00 | 0.79 | 0.48 | 87 | 1008.8 |
| 20260903231404 | 71 | 234 | 0.0 | 0.0 | 0.00 | 0.79 | 0.48 | 86 | 1008.9 |
| 20260903230403 | 71 | 234 | 0.0 | 0.0 | 0.00 | 0.79 | 0.48 | 86 | 1009.0 |
| 20260903225404 | 71 | 234 | 0.0 | 0.0 | 0.00 | 0.79 | 0.48 | 85 | 1008.8 |
| 20260903224403 | 72 | 234 | 0.0 | 0.0 | 0.00 | 0.79 | 0.48 | 84 | 1008.7 |
| 20260903223404 | 73 | 234 | 0.0 | 0.0 | 0.00 | 0.79 | 0.48 | 84 | 1008.8 |
| 20260903222404 | 74 | 234 | 0.0 | 0.0 | 0.00 | 0.79 | 0.48 | 82 | 1008.8 |
| 20260903221404 | 75 | 234 | 0.0 | 0.0 | 0.00 | 0.79 | 0.48 | 81 | 1008.9 |
| 20260903220404 | 76 | 233 | 0.0 | 4.0 | 0.00 | 0.79 | 0.48 | 78 | 1009.0 |
| 20260903215403 | 76 | 227 | 1.0 | 4.0 | 0.00 | 0.79 | 0.48 | 79 | 1009.0 |
| 20260903214404 | 76 | 222 | 1.0 | 4.0 | 0.00 | 0.79 | 0.48 | 78 | 1009.1 |
| 20260903213403 | 77 | 216 | 1.0 | 8.0 | 0.00 | 0.79 | 0.48 | 74 | 1008.8 |
| 20260903212404 | 79 | 264 | 0.0 | 0.0 | 0.00 | 0.79 | 0.48 | 73 | 1008.9 |
| 20260903211404 | 79 | 257 | 0.0 | 0.0 | 0.00 | 0.79 | 0.48 | 73 | 1008.7 |
| 20260903210404 | 79 | 264 | 0.0 | 0.0 | 0.00 | 0.79 | 0.48 | 74 | 1008.7 |
| 20260903205403 | 79 | 233 | 0.0 | 0.0 | 0.00 | 0.79 | 0.48 | 72 | 1008.6 |
| 20260903204404 | 78 | 268 | 0.0 | 0.0 | 0.00 | 0.79 | 0.48 | 77 | 1008.5 |
| 20260903203403 | 80 | 261 | 0.0 | 0.0 | 0.00 | 0.79 | 0.48 | 73 | 1008.6 |
| 20260903202404 | 80 | 264 | 0.0 | 0.0 | 0.00 | 0.79 | 0.48 | 74 | 1008.7 |
| 20260903201404 | 80 | 260 | 0.0 | 0.0 | 0.00 | 0.79 | 0.48 | 75 | 1008.7 |